Cloud_Cover
97 100 100 97 98 100 100 100 100 100 100 100 92 53 100 98 5 45 89 17 15 28 5 60 100 100 100 100 100 100 100 100 100 100 100 100 100 100 100 98 65 100 100 100 100
100 100 100 100 100 100 100 100 100 100 99 100 100 99 100 100 98 99 100 100 100 100 80 78 100 100 100 100 100 98 100 100 100 100 100 100 100 100 100 100 10 43 100 100 100
100 100 97 100 100 100 100 100 100 100 100 92 100 100 100 100 100 100 100 100 100 100 100 100 72 88 58 63 93 100 100 98 26 65 100 100 100 100 100 96 85 59 80 100 100
100 100 100 100 100 91 100 100 100 100 100 100 100 100 100 100 100 100 100 98 95 100 99 99 99 84 10 5 6 5 5 5 5 5 98 36 89 97 100 92 88 100 52 70 100
100 100 100 100 100 100 100 100 100 100 100 100 100 100 100 100 100 100 100 12 13 11 26 5 5 4 5 2 2 5 0 0 5 5 5 25 66 80 53 99 100 100 100 100 100
100 100 100 100 100 100 100 100 100 100 100 100 100 100 100 100 99 100 100 100 100 100 100 100 72 4 5 0 4 5 2 1 5 74 37 5 44 64 100 100 47 100 100 100 100
100 100 100 100 100 100 100 100 100 100 100 100 100 100 100 100 100 98 100 75 26 72 72 82 6 5 5 4 5 5 0 0 5 5 8 5 79 100 98 75 100 100 100 97 100
100 100 100 100 100 100 100 100 100 100 100 100 100 100 100 100 100 100 100 100 100 64 2 1 27 1 5 4 0 1 4 4 2 1 5 5 18 12 5 79 100 100 100 91 98
100 100 100 100 100 100 100 100 100 100 100 100 100 100 100 63 76 96 100 99 14 6 0 4 2 0 0 1 1 3 4 0 0 1 4 5 5 19 7 50 96 100 100 99 92
100 100 100 100 100 100 100 100 100 100 100 100 100 57 93 86 70 99 76 57 69 12 7 3 0 2 0 0 5 66 4 3 2 1 4 4 0 5 5 5 8 100 60 11 11
100 100 100 100 100 100 100 100 100 100 96 75 17 100 100 54 5 5 5 8 57 94 93 3 2 0 0 0 0 4 6 9 5 5 2 0 0 0 0 5 5 5 96 100 60
99 100 87 28 100 100 94 100 100 85 12 5 4 0 3 0 6 18 65 16 5 5 5 31 8 0 0 1 5 0 2 7 5 2 3 0 0 0 0 0 5 5 5 6 46
100 100 100 96 100 100 100 100 57 100 78 3 0 3 1 3 0 4 17 7 5 5 11 22 6 1 2 1 4 5 5 4 4 5 89 4 0 0 0 0 0 5 86 6 5
86 52 100 100 100 100 100 100 100 98 100 2 4 1 3 0 16 0 1 4 5 6 29 100 69 100 98 90 33 97 33 88 91 80 48 35 18 36 4 0 0 0 5 11 89
100 100 100 100 100 100 100 100 100 100 100 2 2 5 5 2 0 0 0 3 5 5 96 8 56 9 95 7 97 100 100 100 100 100 98 5 64 0 22 96 4 78 83 38 3
96 100 100 100 100 100 100 100 97 100 89 84 5 5 5 5 5 1 0 0 48 99 100 81 100 100 100 98 100 100 100 100 100 100 100 21 95 32 100 60 90 70 55 46 0
100 100 100 100 100 100 100 87 100 99 9 45 18 99 71 8 4 0 4 84 54 89 86 98 99 100 97 86 99 100 100 100 100 100 100 100 100 94 100 97 98 36 95 28 50
100 100 100 100 100 100 96 100 100 6 9 8 69 16 8 6 3 3 5 5 18 100 100 100 100 99 100 100 100 100 100 100 100 100 100 100 100 100 44 17 83 67 57 100 96
100 100 100 100 100 100 100 100 60 1 14 68 88 4 40 84 43 22 42 100 100 100 94 100 100 100 56 83 96 100 100 100 100 100 100 100 100 91 98 100 100 100 100 100 100
100 100 100 100 100 100 100 100 41 89 88 98 100 48 87 100 60 42 94 90 100 100 100 100 100 100 95 98 100 100 100 100 100 100 100 100 100 100 86 100 100 100 100 100 100
100 100 100 100 100 100 100 100 100 94 46 96 100 100 100 85 100 82 100 96 97 100 100 100 100 100 96 95 100 100 100 100 100 100 100 100 100 100 100 100 100 100 100 100 99
100 100 100 100 100 100 100 100 99 100 57 60 100 100 100 100 100 100 100 100 100 100 100 100 100 99 100 91 100 100 100 100 100 100 100 100 100 100 100 100 100 100 100 100 100
100 100 100 100 100 100 100 100 100 100 41 100 98 100 96 100 98 100 100 100 100 98 100 100 100 100 100 100 100 100 100 100 100 100 100 100 100 100 100 100 94 71 99 95 89
100 100 100 100 100 100 100 100 100 100 100 100 88 97 100 100 100 98 100 100 100 100 100 100 100 100 100 100 100 100 100 100 100 100 100 100 100 100 100 100 100 90 100 82 6
100 100 100 94 94 100 100 100 100 99 100 100 100 100 100 100 100 100 100 100 100 100 100 100 100 100 100 100 100 100 100 100 100 100 79 100 92 100 100 78 16 32 13 6 58
100 100 100 100 100 100 100 100 100 100 100 100 100 100 100 100 100 100 100 97 100 100 100 100 100 100 100 100 100 100 100 100 100 100 100 100 100 99 5 4 4 6 12 95 100
100 100 100 100 100 100 100 100 100 100 97 100 100 100 100 100 98 100 100 100 99 100 100 100 100 100 100 100 99 98 100 100 100 52 8 4 4 100 58 82 87 100 100 100 100